Tracking 18844 objects as of 21-Nov-2017
HD Live streaming from Space Station
objects crossing your sky now

NIMIQ 2

Track NIMIQ 2 now!
NIMIQ 2 is classified as:


NORAD ID: 27632
Int'l Code: 2002-062A
Perigee: 35,788.2 km
Apogee: 35,797.7 km
Inclination: 2.3 °
Period: 1,436.1 minutes
Semi major axis: 42163 km
RCS: 29.9526 m2 (large)
Launch date: December 29, 2002
Source: Canada (CA)
Launch site: TYURATAM MISSILE AND SPACE COMPLEX (TTMTR)

Television broadcast; 32 Ku-band, 2 Ka-band.
aabbcc
Your satellite tracking list
Your tracking list is empty




NASA's NSSDC Master Catalog

Two Line Element Set (TLE):
1 27632U 02062A   17324.80738359 -.00000228  00000-0  00000+0 0  9992
2 27632   2.3113  81.1374 0001121 221.5055 138.0746  1.00274611 54483
Source of the keplerian elements: AFSPC